Weather History for KPRN - December, 2011

Change the Weather History Date:

Monday, December 12, 2011

  Actual Average Record
Temperature  
Mean Temperature 50 °F -  
Max Temperature 55 °F 61 °F 79 °F (1971)
Min Temperature 46 °F 39 °F 13 °F (1962)
Degree Days  
Heating Degree Days 14    
Moisture  
Dew Point 44 °F    
Average Humidity 82    
Maximum Humidity 96    
Minimum Humidity 63    
Precipitation  
Precipitation 0.00 in - - ()
Sea Level Pressure  
Sea Level Pressure 30.36 in    
Wind  
Wind Speed 6 mph (ENE)    
Max Wind Speed 9 mph    
Max Gust Speed -    
Visibility 9 miles    
Events Rain    
Averages and records for this station are not official NWS values.
T = Trace of Precipitation, MM = Missing Value Source: NWS Daily Summary

Daily Weather History Graph

Daily Weather History Graph

Search for Another Location

Airport or City:

Trip Planner

Search our weather history database for the weather conditions in past years. The results will help you decide how hot, cold, wet, or windy it might be!

Date:

Astronomy

Dec. 12, 2011 Rise Set
Actual Time 6:36 AM CST 4:43 PM CST
Civil Twilight 6:10 AM CST 5:10 PM CST
Nautical Twilight 5:39 AM CST 5:40 PM CST
Astronomical Twilight 5:09 AM CST 6:10 PM CST
Moon 6:50 PM CST (12/12) 8:10 AM CST (12/12)
Length of Visible Light 11h 00m
Length of Day
10h 06m
Waning Gibbous, 95% of the Moon is Illuminated
Dec 12
Waning Gibbous
Dec 17
Last Quarter
Dec 24
New
Jan 1
First Quarter
Jan 9
Full

Hourly Weather History & Observations

Time (CST) Temp. Windchill Dew Point Humidity Pressure Visibility Wind Dir Wind Speed Gust Speed Precip Events Conditions
12:56 AM 50.0 °F - 37.9 °F 63% 30.32 in 10.0 mi East 5.8 mph - N/A   Mostly Cloudy
1:56 AM 50.0 °F - 39.0 °F 66% 30.32 in 10.0 mi East 9.2 mph - N/A   Mostly Cloudy
2:56 AM 48.9 °F - 39.9 °F 71% 30.32 in 10.0 mi East 5.8 mph - N/A   Overcast
3:43 AM 48.9 °F - 39.9 °F 71% 30.31 in 10.0 mi East 6.9 mph - N/A   Overcast
3:56 AM 48.0 °F - 41.0 °F 77% 30.32 in 10.0 mi East 6.9 mph - N/A   Overcast
4:56 AM 48.0 °F - 42.1 °F 80% 30.33 in 10.0 mi ENE 5.8 mph - N/A   Overcast
5:56 AM 46.9 °F - 41.0 °F 80% 30.35 in 10.0 mi ENE 8.1 mph - N/A   Overcast
6:54 AM 46.0 °F 41.9 °F 42.1 °F 86% 30.36 in 10.0 mi ENE 8.1 mph - N/A   Overcast
6:56 AM 46.0 °F 42.5 °F 42.1 °F 86% 30.36 in 10.0 mi ENE 6.9 mph - N/A   Overcast
7:56 AM 46.0 °F 42.5 °F 42.1 °F 86% 30.38 in 10.0 mi NE 6.9 mph - N/A   Overcast
8:56 AM 46.9 °F - 44.1 °F 90% 30.39 in 6.0 mi ENE 4.6 mph - 0.00 in Rain Light Rain
9:24 AM 46.9 °F - 44.1 °F 90% 30.39 in 10.0 mi NE 5.8 mph - 0.00 in   Overcast
9:56 AM 48.0 °F - 45.0 °F 89% 30.40 in 10.0 mi ENE 4.6 mph - 0.00 in   Overcast
10:12 AM 48.0 °F - 45.0 °F 89% 30.39 in 10.0 mi Variable 4.6 mph - N/A   Overcast
10:56 AM 50.0 °F - 45.0 °F 83% 30.38 in 10.0 mi ENE 8.1 mph - N/A   Overcast
11:38 AM 53.1 °F - 46.0 °F 77% 30.36 in 10.0 mi ESE 5.8 mph - N/A   Overcast
11:56 AM 53.1 °F - 46.0 °F 77% 30.35 in 10.0 mi SE 5.8 mph - N/A   Overcast
12:08 PM 55.0 °F - 46.0 °F 72% 30.34 in 10.0 mi ESE 6.9 mph - N/A   Scattered Clouds
12:56 PM 55.0 °F - 46.0 °F 72% 30.34 in 10.0 mi East 5.8 mph - N/A   Overcast
1:56 PM 54.0 °F - 46.0 °F 75% 30.33 in 10.0 mi ENE 4.6 mph - N/A   Overcast
2:56 PM 55.0 °F - 46.9 °F 74% 30.33 in 10.0 mi East 5.8 mph - N/A   Overcast
3:07 PM 54.0 °F - 46.0 °F 75% 30.33 in 10.0 mi ENE 4.6 mph - N/A   Overcast
3:56 PM 54.0 °F - 46.9 °F 77% 30.35 in 10.0 mi Variable 3.5 mph - 0.00 in   Mostly Cloudy
4:56 PM 53.1 °F - 46.0 °F 77% 30.35 in 10.0 mi NNE 6.9 mph - N/A   Overcast
5:56 PM 51.1 °F - 46.0 °F 83% 30.37 in 10.0 mi NE 5.8 mph - N/A   Overcast
6:56 PM 51.1 °F - 46.0 °F 83% 30.38 in 10.0 mi ENE 5.8 mph - N/A   Overcast
7:56 PM 50.0 °F - 46.0 °F 86% 30.38 in 10.0 mi East 8.1 mph - N/A   Overcast
8:28 PM 50.0 °F - 46.0 °F 86% 30.39 in 10.0 mi East 3.5 mph - N/A   Overcast
8:46 PM 50.0 °F - 46.0 °F 86% 30.40 in 10.0 mi East 5.8 mph - N/A   Overcast
8:56 PM 50.0 °F - 46.0 °F 86% 30.40 in 10.0 mi East 6.9 mph - N/A   Overcast
9:04 PM 50.0 °F - 46.0 °F 86% 30.40 in 10.0 mi ENE 6.9 mph - N/A   Overcast
9:21 PM 50.0 °F - 46.0 °F 86% 30.40 in 10.0 mi East 9.2 mph - N/A   Overcast
9:56 PM 48.9 °F - 46.0 °F 90% 30.41 in 10.0 mi East 4.6 mph - N/A   Overcast
10:56 PM 48.0 °F - 46.9 °F 96% 30.40 in 3.0 mi ENE 5.8 mph - N/A   Overcast
11:02 PM 48.0 °F - 46.9 °F 96% 30.40 in 1.8 mi ENE 4.6 mph - N/A   Overcast
11:56 PM 48.0 °F - 46.9 °F 96% 30.39 in 1.0 mi ENE 4.6 mph - 0.00 in   Overcast